Flag for Germany Weather past 2 weeks in Leer, Lower Saxony, Germany

Now
60 °F

Low clouds.


Feels Like: 60 °F
Forecast: 54 / 60 °F
Wind: 6 mph from Southwest

Location: Emden-Koenigspolder

Current Time: Jul 28, 2015 at 11:02:17 AM

Latest Report: Jul 28, 2015 at 10:00 AM


Visibility: 19 mi

Pressure: 29.50 "Hg

Humidity: 91%

Dew point: 58 °F

Location of LeerLocation

Historic Weather in Leer — Graph

°F

Leer temperature yesterday

Maximum temperature yesterday: 63 °F (at 1:00 PM)
Minimum temperature yesterday: 55 °F (at 4:00 AM)
Average temperature yesterday: 59 °F

Past Weeks' High & Low Weather Summary

 TemperatureHumidityPressure
High79 °F (Jul 17, 2:00 PM)100% (Jul 22, 5:00 AM)30.11 "Hg (Jul 22, 5:00 AM)
Low50 °F (Jul 19, 1:00 AM)46% (Jul 18, 6:00 PM)29.35 "Hg (Jul 25, 2:00 PM)
Average63 °F81%29.85 "Hg
* Reported Jul 13 10:00 AM — Jul 28 10:00 AM, Leer, Weather by CustomWeather, © 2015

Note: Actual official high and low records may vary slightly from our data, if they occured in-between our weather recording intervals... More about our weather records

Advertising

Leer weather history for previous 24 hours

 ConditionsComfort  
Time TempWeatherWind HumidityBarometerVisibility
10:00 AM
Tue, Jul 28
60 °FLow clouds.6 mph91%29.50 "Hg19 mi
9:00 AM60 °FRain. Low clouds.8 mph92%29.50 "Hg6 mi
8:00 AM60 °FOvercast.5 mph90%29.47 "Hg22 mi
7:00 AM59 °FOvercast.6 mph91%29.47 "Hg25 mi
6:00 AM59 °FOvercast.5 mph92%29.47 "Hg19 mi
4:00 AM59 °FLight freezing rain. Low clouds.5 mph93%29.44 "Hg7 mi
3:00 AM59 °FOvercast.6 mph90%29.44 "Hg19 mi
2:00 AM60 °FOvercast.6 mph90%29.47 "Hg25 mi
1:00 AM60 °FOvercast.6 mph90%29.47 "Hg25 mi
10:00 PM
Mon, Jul 27
61 °FOvercast.5 mph87%29.44 "Hg31 mi
9:00 PM60 °FOvercast.6 mph92%29.44 "Hg37 mi
8:00 PM60 °FLight rain. Low clouds.8 mph92%29.44 "Hg12 mi
7:00 PM62 °FLight rain. Low clouds.6 mph93%29.44 "Hg13 mi
6:00 PM62 °FLight rain. Low clouds.5 mph92%29.44 "Hg19 mi
5:00 PM61 °FLight freezing rain. Low clouds.6 mph94%29.41 "Hg22 mi
4:00 PM61 °FRain. Low clouds.6 mph95%29.41 "Hg8 mi
3:00 PM62 °FDrizzle. Overcast.7 mph89%29.41 "Hg12 mi
2:00 PM63 °FDrizzle. Overcast.9 mph88%29.38 "Hg13 mi
1:00 PM63 °FDrizzle. Overcast.7 mph90%29.38 "Hg11 mi
12:00 PM62 °FOvercast.7 mph88%29.41 "Hg19 mi
Weather by CustomWeather, © 2015

See weather overviewHow to use our weather pages